Location: 476 Grange Obs.
(45.1421°N, 7.1417°E)
Time: 20:31:21
(UTC+02:00)

N. Korean satellite - Visible Passes

Search period start: 22 October 2019 00:00
Search period end: 31 October 2019 23:00
Orbit: 455 x 508 km, 97.2° (Epoch: 21 October)

Date Brightness Start Highest point End Pass type
(mag) Time Alt. Az. Time Alt. Az. Time Alt. Az.
22 Oct 10.2 19:44:30 10° WSW 19:46:05 13° W 19:47:41 10° WNW visible
23 Oct 8.2 07:06:32 10° NNE 07:10:00 41° E 07:13:30 10° S visible
23 Oct 9.2 19:17:42 10° SSW 19:20:34 25° W 19:23:30 10° NW visible
24 Oct 9.6 06:41:44 10° NE 06:44:35 21° E 06:47:26 10° SE visible
25 Oct 10.5 06:18:02 10° ENE 06:19:04 11° E 06:20:05 10° ESE visible
26 Oct 7.0 07:23:50 10° NNE 07:27:29 70° ESE 07:31:11 10° S visible
26 Oct 10.0 19:35:58 10° SW 19:38:07 16° W 19:40:19 10° NW visible
27 Oct 8.6 05:58:45 10° NNE 06:02:07 33° E 06:05:30 10° SSE visible
27 Oct 8.7 18:09:32 10° SSW 18:12:38 31° W 18:15:48 10° NNW visible
28 Oct 9.9 05:34:07 10° NE 05:36:40 18° E 05:39:12 10° SE visible
30 Oct 7.5 06:15:57 10° NNE 06:19:36 56° E 06:23:14 10° S visible
30 Oct 9.6 18:27:33 10° SW 18:30:08 19° W 18:32:45 10° NW visible
31 Oct 9.0 05:50:58 10° NE 05:54:11 27° E 05:57:24 10° SSE visible
31 Oct 8.2 18:01:23 10° SSW 18:04:40 39° W 18:08:00 10° NNW visible
